GW2090 Weather Reports


time (UTC)temp
C
wind
direction
speed
KPH
gust
KPH
rain 1hr
cm
rain 24hr
cm
rain mn
cm
humidity
%
barometer
mb
20240420160052 10 193 1.6 8.0 0.03 0.58 0.58 89 1011.2
20240420154600 9 189 1.6 6.4 0.03 0.58 0.58 89 1010.8
20240420153051 8 222 1.6 6.4 0.03 0.58 0.58 90 1011.1
20240420151555 8 190 1.6 6.4 0.03 0.58 0.58 90 1011.7
20240420150049 8 248 3.2 6.4 0.00 0.56 0.56 90 1012.1
20240420144552 8 194 3.2 12.9 0.00 0.56 0.56 90 1012.1
20240420143049 8 238 1.6 12.9 0.00 0.56 0.56 90 1012.4
20240420141549 7 275 3.2 9.7 0.00 0.56 0.56 90 1012.4
20240420140048 7 194 3.2 11.3 0.00 0.56 0.56 91 1012.1
20240420134553 7 249 1.6 6.4 0.00 0.56 0.56 91 1012.7
20240420133054 7 190 1.6 8.0 0.03 0.56 0.56 91 1012.6
20240420131548 7 0 1.6 16.1 0.08 0.56 0.56 91 1012.7
20240420130050 7 279 4.8 14.5 0.10 0.56 0.56 91 1013.3
20240420124556 7 238 3.2 9.7 0.13 0.56 0.56 90 1012.3
20240420123046 7 236 1.6 9.7 0.15 0.53 0.53 90 1012.8
20240420121547 7 169 1.6 6.4 0.15 0.48 0.48 90 1013.2
20240420120047 7 178 1.6 6.4 0.20 0.46 0.46 89 1013.1
20240420114552 7 278 0.0 4.8 0.25 0.43 0.43 89 1013.5
20240420113049 7 0 0.0 6.4 0.25 0.38 0.38 88 1013.2
20240420111556 7 239 0.0 4.8 0.23 0.33 0.33 88 1013.9
20240420110047 6 0 1.6 8.0 0.18 0.25 0.25 88 1013.6
20240420104548 7 187 3.2 6.4 0.10 0.18 0.18 87 1014.2
20240420103050 7 233 1.6 6.4 0.08 0.13 0.13 87 1014.1
20240420101547 7 209 1.6 4.8 0.08 0.10 0.10 87 1014.0
20240420100045 7 209 0.0 6.4 0.08 0.08 0.08 86 1013.6
20240420094551 7 198 1.6 6.4 0.08 0.08 0.08 86 1013.8
20240420093056 7 194 1.6 9.7 0.05 0.05 0.05 84 1013.7
20240420091557 7 0 0.0 9.7 0.03 0.03 0.03 83 1013.7
20240420090054 7 193 1.6 6.4 0.00 0.00 0.00 83 1013.8
20240420084552 7 0 1.6 9.7 0.00 0.00 0.00 82 1013.9
20240420083056 7 197 3.2 8.0 0.00 0.00 0.00 79 1014.0
20240420081552 7 185 3.2 11.3 0.00 0.00 0.00 79 1014.4
20240420080053 7 187 4.8 14.5 0.00 0.00 0.00 78 1014.3
20240420074556 7 209 1.6 8.0 0.00 0.00 0.00 78 1014.3
20240420073054 7 176 6.4 17.7 0.00 0.00 0.00 78 1014.4
20240420071552 7 208 6.4 17.7 0.00 0.00 0.00 77 1014.6
20240420070054 8 200 4.8 16.1 0.00 0.00 0.00 76 1014.6
20240420064554 8 221 6.4 14.5 0.00 0.00 0.00 74 1014.6
20240420063049 8 207 3.2 12.9 0.00 0.00 0.00 72 1014.9
20240420061557 8 186 4.8 14.5 0.00 0.00 0.00 72 1015.1
20240420060055 8 185 4.8 14.5 0.00 0.00 0.00 72 1015.2
20240420054551 8 186 6.4 17.7 0.00 0.00 0.00 72 1015.4
20240420053051 8 158 6.4 17.7 0.00 0.00 0.00 71 1015.6
20240420051553 8 200 8.0 17.7 0.00 0.00 0.00 70 1015.8
20240420050050 8 182 8.0 25.7 0.00 0.00 0.00 69 1015.9
20240420044552 8 199 4.8 16.1 0.00 0.00 0.00 68 1015.9
20240420043100 8 181 6.4 17.7 0.00 0.00 0.00 68 1016.2
20240420041553 8 186 8.0 19.3 0.00 0.00 0.00 68 1016.4
20240420040113 8 192 8.0 29.0 0.00 0.00 0.00 69 1016.6
20240420034556 8 204 8.0 16.1 0.00 0.00 0.00 70 1016.6
20240420033045 8 194 8.0 19.3 0.00 0.00 0.00 70 1016.6
20240420031551 8 213 8.0 16.1 0.00 0.00 0.00 70 1016.9
20240420030053 8 196 4.8 27.4 0.00 0.00 0.00 71 1017.0
20240420024549 8 169 9.7 24.1 0.00 0.00 0.00 70 1017.1
20240420023047 8 180 8.0 25.7 0.00 0.00 0.00 70 1017.1
20240420021549 8 175 8.0 22.5 0.00 0.00 0.00 71 1017.3
20240420020048 7 216 8.0 17.7 0.00 0.00 0.00 72 1017.9
20240420014549 7 203 6.4 17.7 0.00 0.00 0.00 73 1018.1
20240420013049 7 173 6.4 19.3 0.00 0.00 0.00 73 1018.3
20240420011550 8 201 6.4 16.1 0.00 0.00 0.00 71 1018.5
20240420010050 8 0 3.2 12.9 0.00 0.00 0.00 68 1018.4
20240420004600 7 170 6.4 14.5 0.00 0.00 0.00 68 1018.4
20240420003048 7 182 4.8 14.5 0.00 0.00 0.00 67 1018.3
20240420001550 7 227 1.6 11.3 0.00 0.00 0.00 67 1018.1
20240420000049 7 192 1.6 14.5 0.00 0.00 0.00 67 1018.0
20240419234553 7 167 3.2 9.7 0.00 0.00 0.00 68 1018.2
20240419233048 8 146 4.8 12.9 0.00 0.00 0.00 66 1018.4
20240419231550 8 164 3.2 12.9 0.00 0.00 0.00 66 1018.2
20240419230046 8 175 6.4 16.1 0.00 0.00 0.00 65 1018.3
20240419224551 8 189 9.7 19.3 0.00 0.00 0.00 65 1018.4
20240419223101 8 169 3.2 16.1 0.00 0.00 0.00 65 1018.1
20240419221549 8 165 4.8 16.1 0.00 0.00 0.00 64 1018.5
20240419220049 8 167 4.8 14.5 0.00 0.00 0.00 63 1018.4
20240419214557 9 167 4.8 17.7 0.00 0.00 0.00 63 1018.2
20240419213053 9 196 4.8 16.1 0.00 0.00 0.00 63 1018.5
20240419211550 9 184 4.8 16.1 0.00 0.00 0.00 62 1018.8
20240419210048 9 196 6.4 19.3 0.00 0.00 0.00 61 1019.0
20240419204552 9 178 4.8 14.5 0.00 0.00 0.00 62 1019.0
20240419203055 9 156 4.8 17.7 0.00 0.00 0.00 63 1019.6
20240419201549 9 162 8.0 19.3 0.00 0.00 0.00 61 1019.7
20240419200047 10 194 6.4 16.1 0.00 0.00 0.00 60 1019.9
20240419194558 10 169 6.4 17.7 0.00 0.00 0.00 60 1019.9
20240419193052 10 165 4.8 14.5 0.00 0.00 0.00 60 1019.6
20240419191601 10 138 4.8 14.5 0.00 0.00 0.00 58 1019.8
20240419190056 11 141 6.4 17.7 0.00 0.00 0.00 57 1020.2
20240419184547 11 157 3.2 14.5 0.00 0.00 0.00 57 1020.4
20240419183100 11 186 8.0 17.7 0.00 0.00 0.00 58 1020.8
20240419181554 11 171 3.2 24.1 0.00 0.00 0.00 58 1021.0
20240419180056 11 169 6.4 16.1 0.00 0.00 0.00 59 1021.0
20240419174555 10 187 6.4 19.3 0.00 0.00 0.00 60 1021.3
20240419173127 10 173 3.2 11.3 0.00 0.00 0.00 65 1021.3
20240419171552 10 167 4.8 11.3 0.00 0.00 0.00 64 1021.3
20240419170055 10 76 4.8 16.1 0.00 0.00 0.00 63 1021.4
20240419164556 10 146 6.4 16.1 0.00 0.00 0.00 62 1021.5
20240419163050 10 111 3.2 11.3 0.00 0.00 0.00 64 1021.7
20240419161611 9 85 3.2 9.7 0.00 0.00 0.00 67 1021.9